EW8865 Weather Reports


time (UTC)temp
F
wind
direction
speed
knots
gust
knots
rain 1hr
in
rain 24hr
in
rain mn
in
humidity
%
barometer
mb
20260504110504 58 87 1.7 6.1 0.00 0.21 0.13 79 1014.1
20260504100503 59 74 4.3 10.4 0.00 0.21 0.13 79 1013.7
20260504082003 54 103 4.3 10.4 0.00 0.21 0.13 90 1013.3
20260504081504 54 111 4.3 10.4 0.00 0.21 0.13 90 1013.3
20260504081004 54 84 7.0 13.0 0.00 0.21 0.13 90 1013.3
20260504080505 54 88 6.1 12.2 0.00 0.21 0.13 91 1013.3
20260504050504 53 104 0.9 1.7 0.00 0.08 0.00 91 1011.7
20260504050004 53 96 1.7 2.6 0.00 0.08 0.00 91 1011.7
20260504045504 53 88 1.7 2.6 0.00 0.08 0.00 91 1011.6
20260504045004 53 86 0.9 2.6 0.00 0.08 0.00 92 1011.6
20260504044504 53 89 0.0 0.0 0.00 0.08 0.00 92 1011.6
20260504044005 53 92 0.0 0.0 0.00 0.08 0.00 92 1011.5
20260504043003 53 89 0.0 0.0 0.00 0.08 0.00 92 1011.4
20260504042503 53 89 0.0 0.0 0.00 0.08 0.00 92 1011.4
20260504042004 53 89 0.0 0.0 0.00 0.08 0.00 92 1011.5
20260504041504 53 89 0.0 0.0 0.00 0.08 0.00 92 1011.6
20260504041004 53 89 0.0 0.0 0.00 0.08 0.00 92 1011.6
20260504040503 53 89 0.0 0.0 0.00 0.08 0.00 92 1011.5
20260504040003 53 89 0.0 0.0 0.00 0.08 0.00 92 1011.5
20260504034503 53 84 0.0 0.0 0.00 0.08 0.00 92 1011.4
20260504034004 53 82 0.0 0.0 0.00 0.08 0.00 92 1011.4
20260504033003 53 79 0.0 0.0 0.00 0.08 0.00 92 1011.4
20260504032003 53 79 0.0 0.0 0.00 0.08 0.00 92 1011.4
20260504031003 53 79 0.0 0.0 0.00 0.08 0.00 92 1011.4
20260504030004 53 79 0.0 0.0 0.00 0.08 0.00 92 1011.5
20260504025503 53 79 0.0 0.0 0.00 0.08 0.00 92 1011.5
20260504025004 53 79 0.0 0.0 0.00 0.08 0.00 92 1011.4
20260504024004 53 79 0.0 0.0 0.00 0.08 0.00 92 1011.4
20260504023504 53 79 0.0 0.0 0.00 0.08 0.00 92 1011.4
20260504022504 53 79 0.0 0.0 0.00 0.08 0.00 92 1011.4
20260504022003 53 79 0.0 0.0 0.00 0.08 0.00 92 1011.4
20260504021503 53 79 0.0 0.0 0.00 0.08 0.00 92 1011.4
20260504020504 53 79 0.0 0.0 0.00 0.08 0.00 92 1011.4
20260504020004 53 79 0.0 0.0 0.00 0.08 0.00 92 1011.3
20260504015504 53 79 0.0 0.0 0.00 0.08 0.00 92 1011.3
20260504015003 53 79 0.0 0.0 0.00 0.08 0.00 92 1011.3
20260504014504 53 79 0.0 0.0 0.00 0.08 0.00 92 1011.3
20260504013504 53 79 0.0 0.0 0.00 0.08 0.00 92 1011.3
20260504013003 53 79 0.0 0.0 0.00 0.08 0.00 92 1011.3
20260504012503 53 79 0.0 0.0 0.00 0.08 0.00 92 1011.3
20260504012003 53 79 0.0 0.0 0.00 0.08 0.00 92 1011.3
20260504011504 53 79 0.0 0.0 0.00 0.08 0.00 92 1011.3
20260504011005 53 79 0.0 0.0 0.00 0.08 0.00 92 1011.3
20260504010503 53 79 0.0 0.0 0.00 0.08 0.00 92 1011.3
20260504010004 53 79 0.0 0.0 0.00 0.08 0.00 92 1011.3
20260504005004 53 79 0.0 0.0 0.00 0.08 0.00 92 1011.3
20260504004504 53 79 0.0 0.0 0.00 0.08 0.00 92 1011.3
20260504004003 52 79 0.0 0.0 0.00 0.08 0.00 92 1011.3
20260504003504 52 79 0.0 0.0 0.00 0.08 0.00 92 1011.2
20260504003004 52 79 0.0 0.0 0.00 0.08 0.00 92 1011.2
20260504002503 52 79 0.0 0.0 0.00 0.08 0.00 92 1011.3
20260504001503 52 79 0.0 0.0 0.00 0.08 0.00 92 1011.3
20260504001004 52 79 0.0 0.0 0.00 0.08 0.00 92 1011.3
20260504000503 52 79 0.0 0.0 0.00 0.08 0.00 92 1011.4
20260504000004 52 79 0.0 0.0 0.00 0.08 0.00 92 1011.3
20260503235504 52 79 0.0 0.0 0.00 0.08 0.00 92 1011.3
20260503235004 51 79 0.0 0.0 0.00 0.08 0.00 92 1011.3
20260503234503 51 79 0.0 0.0 0.00 0.08 0.00 91 1011.2
20260503234004 51 79 0.0 0.0 0.00 0.08 0.00 91 1011.2
20260503233504 51 79 0.0 0.0 0.00 0.08 0.00 91 1011.2
20260503233003 51 79 0.0 0.0 0.00 0.08 0.00 91 1011.2
20260503232504 51 79 0.0 0.0 0.00 0.08 0.00 91 1011.2
20260503232003 51 79 0.0 0.0 0.00 0.08 0.00 90 1011.1
20260503231504 51 79 0.0 0.0 0.00 0.08 0.00 90 1011.0
20260503230004 51 79 0.0 0.0 0.00 0.08 0.00 90 1010.9
20260503225504 52 79 0.0 0.0 0.00 0.08 0.08 90 1010.9
20260503225004 52 79 0.0 0.0 0.00 0.08 0.08 90 1010.8
20260503224503 52 79 0.0 2.6 0.00 0.08 0.08 90 1010.8
20260503224003 52 79 0.9 1.7 0.00 0.08 0.08 90 1010.7
20260503223503 52 79 0.9 1.7 0.00 0.08 0.08 90 1010.7
20260503223004 52 79 0.0 0.0 0.00 0.08 0.08 90 1010.7
20260503222504 52 79 0.0 0.0 0.00 0.08 0.08 90 1010.6
20260503222004 52 79 0.0 0.0 0.00 0.08 0.08 90 1010.6
20260503221004 53 79 0.0 0.0 0.00 0.08 0.08 89 1010.6
20260503220505 53 79 0.0 0.0 0.00 0.08 0.08 89 1010.5
20260503220004 53 79 0.0 0.0 0.00 0.08 0.08 89 1010.5
20260503215005 53 79 0.0 0.0 0.00 0.08 0.08 89 1010.4
20260503214504 53 79 0.0 1.7 0.00 0.08 0.08 89 1010.4
20260503214003 54 79 0.9 2.6 0.00 0.08 0.08 89 1010.4
20260503213004 54 42 1.7 2.6 0.00 0.08 0.08 89 1010.3
20260503212003 54 5 0.9 2.6 0.00 0.08 0.08 88 1010.3
20260503211504 54 5 0.0 1.7 0.00 0.08 0.08 88 1010.2
20260503211003 54 5 0.9 1.7 0.00 0.08 0.08 88 1010.1
20260503210504 55 5 0.9 1.7 0.00 0.08 0.08 88 1010.1
20260503210004 55 5 0.0 0.9 0.00 0.08 0.08 89 1010.0
20260503205504 55 5 0.0 1.7 0.00 0.08 0.08 89 1010.0
20260503204003 55 5 1.7 2.6 0.00 0.08 0.08 89 1009.9
20260503203505 55 0 0.9 2.6 0.00 0.08 0.08 89 1009.9
20260503203004 55 0 0.9 2.6 0.00 0.08 0.08 89 1009.9
20260503202503 55 0 0.0 2.6 0.00 0.08 0.08 88 1009.9
20260503201504 55 0 0.9 2.6 0.00 0.08 0.08 88 1009.8
20260503201004 55 0 1.7 2.6 0.00 0.08 0.08 88 1009.8
20260503200503 55 0 0.9 2.6 0.00 0.08 0.08 88 1009.7
20260503195504 55 0 0.0 0.9 0.00 0.08 0.08 87 1009.6
20260503193503 56 358 0.0 1.7 0.00 0.09 0.08 87 1009.4
20260503193003 56 354 0.9 1.7 0.00 0.09 0.08 87 1009.4
20260503191004 56 61 1.7 2.6 0.00 0.09 0.08 87 1009.2
20260503190504 56 61 0.0 1.7 0.00 0.09 0.08 87 1009.2
20260503190004 56 61 0.9 2.6 0.00 0.09 0.08 87 1009.2
20260503185003 56 61 0.9 2.6 0.02 0.10 0.08 86 1009.1
20260503183004 57 52 0.9 2.6 0.08 0.12 0.08 86 1009.0
20260503182503 57 54 1.7 2.6 0.08 0.12 0.08 86 1008.9
20260503182005 57 28 1.7 2.6 0.08 0.12 0.08 85 1008.9
20260503180504 57 353 2.6 4.3 0.08 0.13 0.08 83 1008.8
20260503180004 58 350 2.6 5.2 0.08 0.13 0.08 81 1008.8
20260503171004 61 0 3.5 7.8 0.00 0.10 0.00 72 1008.6
20260503170503 62 356 1.7 7.0 0.00 0.12 0.00 73 1008.6
20260503151004 66 139 3.5 10.4 0.00 0.42 0.00 59 1008.4
20260503131004 65 159 4.3 8.7 0.00 0.43 0.00 67 1008.8
20260503130503 64 158 5.2 8.7 0.00 0.43 0.00 67 1008.8